User: anonymous   Login
Location: Deep South Regional Star Gaze
(30.9929°N, 90.9586°W)
Time: 07:44:35
(UTC-05:00)
Language:

MSX - Orbit

View from above orbital plane
View from above orbital plane
View from above satellite
View from above satellite

Ground track
Ground track

The orbit data is extracted from the following two-line orbital elements,

1 23851U 96024A   14294.78271696 0.00000200  00000-0  14106-3 0    06
2 23851  98.7686 335.1211 0007000 148.6984 211.3015 13.97991859    02
Epoch (UTC): 21 October 2014 18:47:06
Eccentricity: 0.0007000
inclination: 98.7686°
perigee height: 895 km
apogee height: 906 km
right ascension of ascending node: 335.1211°
argument of perigee: 148.6984°
revolutions per day: 13.97991859
mean anomaly at epoch: 211.3015°
orbit number at epoch: 0

The dashed part of the orbit path shows where the satellite is in the earth's shadow,  

DLR